This demonstration page uses our WeatherBlox Daily Observations layout. Learn more.

40.92945, -100.16068

Hourly Observations for January 20, 2015

Temp ( °F °C ) Dew Point ( °F °C ) Humidity (%) Winds ( mph kmh ) Pressure ( in mb ) Visibility ( mi km ) Precip ( " mm )
12:15 am 00:15 Partly Cloudy 33 0.4 27 -2.7 80 80 WNW 9 15 30.15 1021 10 16.0934 N/A
12:35 am 00:35 Clear 32 0 27 -2.8 82 82 WNW 6 9 30.15 1021 10 16.0934 N/A
12:55 am 00:55 Clear 31 -0.4 27 -3 83 83 WNW 7 11 30.15 1021 10 16.0934 N/A
1:15 am 01:15 Clear 31 -0.3 27 -2.9 83 83 WNW 7 11 30.15 1021 10 16.0934 N/A
1:35 am 01:35 Clear 32 0 27 -2.8 82 82 WNW 9 15 30.15 1021 10 16.0934 N/A
1:55 am 01:55 Partly Cloudy 32 0 27 -2.7 82 82 WNW 9 15 30.15 1021 10 16.0934 N/A
2:15 am 02:15 Partly Cloudy 31 -0.3 27 -3 82 82 NW 7 11 30.15 1021 10 16.0934 N/A
2:35 am 02:35 Clear 31 -0.5 26 -3.1 83 83 NNW 6 9 30.15 1021 10 16.0934 N/A
2:55 am 02:55 Partly Cloudy 30 -1.1 26 -3.5 84 84 NW 9 15 30.15 1021 10 16.0934 N/A
3:15 am 03:15 Partly Cloudy 30 -1.2 26 -3.6 84 84 WNW 9 15 30.18 1022 10 16.0934 N/A
3:35 am 03:35 Partly Cloudy 30 -1 26 -3.3 85 85 WNW 9 15 30.18 1022 10 16.0934 N/A
3:55 am 03:55 Clear 30 -1 26 -3.5 83 83 WNW 9 15 30.18 1022 10 16.0934 N/A
4:15 am 04:15 Clear 30 -1.2 26 -3.6 84 84 WNW 10 17 30.18 1022 10 16.0934 N/A
4:35 am 04:35 Clear 29 -1.8 25 -3.8 86 86 WNW 9 15 30.18 1022 10 16.0934 N/A
4:55 am 04:55 Clear 28 -2 25 -4 86 86 WNW 10 17 30.18 1022 10 16.0934 N/A
5:15 am 05:15 Clear 27 -2.7 24 -4.5 88 88 WNW 8 13 30.18 1022 10 16.0934 N/A
5:35 am 05:35 Clear 27 -2.7 24 -4.2 90 90 WNW 13 20 30.18 1022 10 16.0934 N/A
5:55 am 05:55 Clear 30 -1.2 26 -3.5 85 85 WNW 13 20 30.15 1021 10 16.0934 N/A
6:15 am 06:15 Clear 30 -1.1 26 -3.4 85 85 WNW 10 17 30.15 1021 10 16.0934 N/A
6:35 am 06:35 Clear 29 -1.7 25 -3.8 86 86 WNW 10 17 30.18 1022 10 16.0934 N/A
6:55 am 06:55 Clear 28 -2 25 -3.8 88 88 NW 8 13 30.18 1022 10 16.0934 N/A
7:15 am 07:15 Clear 29 -1.8 25 -3.8 86 86 NW 10 17 30.21 1023 10 16.0934 N/A
7:35 am 07:35 Clear 29 -1.5 25 -3.8 85 85 NW 13 20 30.18 1022 10 16.0934 N/A
7:55 am 07:55 Clear 29 -1.9 25 -4.1 85 85 WNW 12 19 30.21 1023 10 16.0934 N/A
8:15 am 08:15 Sunny 28 -2 25 -4.1 86 86 NW 10 17 30.21 1023 10 16.0934 N/A
8:35 am 08:35 Sunny 29 -1.8 25 -4.1 84 84 NW 12 19 30.21 1023 10 16.0934 N/A
8:55 am 08:55 Sunny 30 -1 26 -3.6 83 83 WNW 7 11 30.21 1023 10 16.0934 N/A
9:15 am 09:15 Sunny 32 0 27 -3 80 80 WNW 15 24 30.21 1023 10 16.0934 N/A
9:55 am 09:55 Sunny 35 1.4 28 -2.4 76 76 WNW 10 17 30.21 1023 10 16.0934 N/A
10:15 am 10:15 Sunny 38 3.2 28 -2 69 69 WNW 14 22 30.18 1022 10 16.0934 N/A
10:35 am 10:35 Sunny 39 3.7 28 -2 67 67 WNW 15 24 30.18 1022 10 16.0934 N/A
10:55 am 10:55 Sunny 40 4.3 28 -2.3 63 63 WNW 17 28 30.18 1022 10 16.0934 N/A
11:15 am 11:15 Sunny 41 4.8 28 -2.2 61 61 WNW 18 30 30.15 1021 10 16.0934 N/A
11:35 am 11:35 Sunny 42 5.5 28 -2.1 58 58 WNW 16 26 30.15 1021 10 16.0934 N/A
11:55 am 11:55 Sunny 44 6.5 28 -2.3 54 54 NW 14 22 30.15 1021 10 16.0934 N/A
12:15 pm 12:15 Sunny 45 7.4 28 -2.4 50 50 NW 10 17 30.15 1021 10 16.0934 N/A
12:35 pm 12:35 Sunny 46 7.9 26 -3.5 45 45 NW 14 22 30.12 1020 10 16.0934 N/A
12:55 pm 12:55 Sunny 47 8.5 26 -3.6 43 43 NW 15 24 30.09 1019 10 16.0934 N/A
1:15 pm 13:15 Sunny 47 8.5 25 -4.1 41 41 NW 17 28 30.09 1019 10 16.0934 N/A
1:35 pm 13:35 Sunny 47 8.6 24 -4.2 40 40 NW 10 17 30.09 1019 10 16.0934 N/A
1:55 pm 13:55 Sunny 48 8.9 25 -4 40 40 WNW 13 20 30.09 1019 10 16.0934 N/A
2:15 pm 14:15 Sunny 48 9.1 25 -4.1 39 39 NW 14 22 30.09 1019 10 16.0934 N/A
2:35 pm 14:35 Sunny 48 8.9 25 -3.7 41 41 WNW 16 26 30.06 1018 10 16.0934 N/A
2:55 pm 14:55 Sunny 49 9.3 25 -3.7 40 40 WNW 16 26 30.06 1018 10 16.0934 N/A
3:15 pm 15:15 Sunny 49 9.2 24 -4.6 38 38 WNW 15 24 30.06 1018 10 16.0934 N/A
3:35 pm 15:35 Sunny 49 9.2 24 -4.2 39 39 W 13 20 30.06 1018 10 16.0934 N/A
3:55 pm 15:55 Partly Cloudy 49 9.7 25 -3.8 39 39 WNW 15 24 30.06 1018 10 16.0934 N/A
4:15 pm 16:15 Partly Cloudy 49 9.2 22 -5.8 34 34 NW 16 26 30.06 1018 10 16.0934 N/A
4:35 pm 16:35 Sunny 47 8.6 22 -5.4 37 37 NW 17 28 30.06 1018 10 16.0934 N/A
4:55 pm 16:55 Sunny 46 8 22 -5.4 39 39 WNW 15 24 30.09 1019 10 16.0934 N/A
5:15 pm 17:15 Sunny 45 7 22 -5.4 41 41 NW 14 22 30.12 1020 10 16.0934 N/A
5:35 pm 17:35 Sunny 42 5.7 23 -5.2 46 46 WNW 13 20 30.12 1020 10 16.0934 N/A
5:55 pm 17:55 Clear 38 3.5 23 -4.8 55 55 WNW 12 19 30.15 1021 10 16.0934 N/A
6:15 pm 18:15 Clear 38 3.5 24 -4.3 57 57 WNW 13 20 30.15 1021 10 16.0934 N/A
6:35 pm 18:35 Clear 38 3.2 24 -4.2 59 59 NW 13 20 30.15 1021 10 16.0934 N/A
6:55 pm 18:55 Clear 37 2.6 25 -4 62 62 NW 12 19 30.18 1022 10 16.0934 N/A
7:15 pm 19:15 Clear 34 0.9 25 -4 70 70 WNW 12 19 30.21 1023 10 16.0934 N/A
7:35 pm 19:35 Clear 32 0.2 25 -4.1 73 73 WNW 9 15 30.21 1023 10 16.0934 N/A
7:55 pm 19:55 Clear 32 0.1 25 -4 74 74 WNW 10 17 30.21 1023 10 16.0934 N/A
8:15 pm 20:15 Clear 32 -0.2 25 -3.8 77 77 WNW 12 19 30.21 1023 10 16.0934 N/A
8:35 pm 20:35 Clear 31 -0.3 25 -3.7 78 78 WNW 9 15 30.21 1023 10 16.0934 N/A
8:55 pm 20:55 Clear 30 -1.2 25 -4 82 82 WNW 7 11 30.21 1023 10 16.0934 N/A
9:15 pm 21:15 Clear 30 -1.2 25 -3.8 83 83 WNW 9 15 30.21 1023 10 16.0934 N/A
9:35 pm 21:35 Clear 29 -1.5 25 -4 83 83 WNW 10 17 30.21 1023 10 16.0934 N/A
9:55 pm 21:55 Clear 29 -1.5 25 -4 83 83 NW 8 13 30.21 1023 10 16.0934 N/A
10:15 pm 22:15 Clear 29 -1.5 25 -4 83 83 WNW 8 13 30.21 1023 10 16.0934 N/A
10:35 pm 22:35 Clear 29 -1.9 25 -4 86 86 WNW 8 13 30.27 1025 10 16.0934 N/A
10:55 pm 22:55 Clear 29 -1.8 25 -4 85 85 WNW 8 13 30.27 1025 10 16.0934 N/A
11:15 pm 23:15 Clear 28 -2.5 24 -4.5 86 86 WNW 8 13 30.27 1025 10 16.0934 N/A
11:35 pm 23:35 Clear 29 -1.4 26 -3.5 86 86 WNW 9 15 30.3 1026 10 16.0934 N/A
11:55 pm 23:55 Clear 29 -1.7 25 -4 85 85 W 9 15 30.3 1026 10 16.0934 N/A

Powered by AerisWeather